Fort Knox, KY

10:10 PM EDT on June 25, 2017 (GMT -0400)
Godman Army Air Field

Weather History for KFTK - April, 2013

Change the Weather History Date:

Saturday, April 27, 2013

  Actual Average Record
Temperature  
Mean Temperature 53 °F -  
Max Temperature 56 °F 68 °F 83 °F (2014)
Min Temperature 49 °F 47 °F 35 °F (2015)
Degree Days  
Heating Degree Days 12    
Growing Degree Days 3 (Base 50)    
Moisture  
Dew Point 52 °F    
Average Humidity 89    
Maximum Humidity 100    
Minimum Humidity 68    
Precipitation  
Precipitation 0.28 in - - ()
Sea Level Pressure  
Sea Level Pressure 30.13 in    
Wind  
Wind Speed 7 mph (ESE)    
Max Wind Speed 18 mph    
Max Gust Speed 25 mph    
Visibility 9 miles    
Events Rain    
Averages and records for this station are not official NWS values.
T = Trace of Precipitation, MM = Missing Value Source: NWS Daily Summary

Daily Weather History Graph

Daily Weather History Graph

Search for Another Location

Airport or City:

Trip Planner

Search our weather history database for the weather conditions in past years. The results will help you decide how hot, cold, wet, or windy it might be!

Date:

Astronomy

Apr. 27, 2013 Rise Set
Actual Time 6:52 AM EDT 8:31 PM EDT
Civil Twilight 6:24 AM EDT 8:59 PM EDT
Nautical Twilight 5:50 AM EDT 9:33 PM EDT
Astronomical Twilight 5:14 AM EDT 10:09 PM EDT
Moon 10:57 PM EDT (4/27) 8:11 AM EDT (4/27)
Length of Visible Light 14h 34m
Length of Day
13h 38m
Waning Gibbous, 95% of the Moon is Illuminated
Apr 27
Waning Gibbous
May 2
Last Quarter
May 9
New
May 18
First Quarter
May 25
Full

Hourly Weather History & Observations

Time (EDT) Temp. Dew Point Humidity Pressure Visibility Wind Dir Wind Speed Gust Speed Precip Events Conditions
12:58 AM 51.1 °F 42.6 °F 73% 30.33 in 10.0 mi Calm Calm - N/A   Overcast
1:58 AM 50.4 °F 43.2 °F 76% 30.32 in 10.0 mi SSE 6.9 mph - N/A   Overcast
2:58 AM 51.3 °F 41.0 °F 68% 30.33 in 10.0 mi Calm Calm - N/A   Overcast
3:58 AM 49.6 °F 42.8 °F 77% 30.31 in 10.0 mi Calm Calm - N/A   Mostly Cloudy
4:58 AM 52.0 °F 42.6 °F 70% 30.28 in 10.0 mi ENE 2.3 mph - N/A   Overcast
5:58 AM 51.3 °F 43.2 °F 74% 30.27 in 10.0 mi ESE 4.6 mph - N/A   Overcast
6:58 AM 51.3 °F 43.9 °F 76% 30.26 in 10.0 mi ENE 4.6 mph - N/A   Overcast
6:59 AM 51.8 °F 44.6 °F 76% 30.26 in 10.0 mi ENE 4.6 mph - N/A   Overcast
7:58 AM 50.9 °F 44.2 °F 78% 30.24 in 10.0 mi East 8.1 mph - N/A   Overcast
8:55 AM 51.8 °F 46.4 °F 82% 30.26 in 10.0 mi East 4.6 mph - N/A   Overcast
9:55 AM 51.8 °F 46.4 °F 82% 30.25 in 10.0 mi East 3.5 mph - N/A   Overcast
9:58 AM 52.3 °F 46.4 °F 80% 30.26 in 10.0 mi East 2.3 mph - N/A   Overcast
10:56 AM 53.6 °F 46.4 °F 77% 30.24 in 10.0 mi East 5.8 mph - N/A   Overcast
11:57 AM 53.6 °F 46.4 °F 77% 30.24 in 10.0 mi ESE 8.1 mph - N/A   Overcast
12:55 PM 55.4 °F 48.2 °F 77% 30.25 in 10.0 mi ESE 5.8 mph - N/A   Overcast
12:56 PM 55.4 °F 48.2 °F 77% 30.23 in 10.0 mi ESE 6.9 mph - N/A   Overcast
1:02 PM 55.4 °F 48.2 °F 77% 30.23 in 10.0 mi SE 8.1 mph - N/A Rain Light Rain
1:16 PM 55.4 °F 51.8 °F 88% 30.21 in 5.0 mi SE 8.1 mph - N/A Rain Light Rain
1:18 PM 55.4 °F 51.8 °F 88% 30.22 in 6.0 mi SE 9.2 mph - N/A Rain Light Rain
1:33 PM 55.4 °F 53.6 °F 94% 30.20 in 6.0 mi SE 9.2 mph - N/A Rain Light Rain
1:34 PM 55.4 °F 53.6 °F 94% 30.21 in 7.0 mi ESE 8.1 mph - N/A Rain Light Rain
1:35 PM 55.4 °F 53.6 °F 94% 30.21 in 7.0 mi ESE 8.1 mph - N/A Rain Light Rain
1:38 PM 55.4 °F 53.6 °F 94% 30.20 in 8.0 mi ESE 6.9 mph - N/A Rain Light Rain
1:58 PM 56.3 °F 54.5 °F 94% 30.20 in 10.0 mi ESE 11.5 mph - 0.02 in Rain Light Rain
1:59 PM 57.2 °F 53.6 °F 88% 30.20 in 10.0 mi ESE 12.7 mph - N/A Rain Light Rain
2:04 PM 57.2 °F 55.4 °F 94% 30.18 in 10.0 mi ESE 11.5 mph - N/A   Overcast
2:07 PM 57.2 °F 55.4 °F 94% 30.18 in 10.0 mi ESE 11.5 mph - N/A   Overcast
2:12 PM 57.2 °F 55.4 °F 94% 30.18 in 10.0 mi ESE 11.5 mph - N/A Rain Light Rain
2:28 PM 57.2 °F 55.4 °F 94% 30.16 in 10.0 mi ESE 13.8 mph - N/A   Overcast
2:29 PM 57.2 °F 55.4 °F 94% 30.16 in 10.0 mi East 12.7 mph - N/A   Light Drizzle
2:31 PM 57.2 °F 55.4 °F 94% 30.15 in 10.0 mi ESE 13.8 mph - N/A   Overcast
2:58 PM 56.7 °F 54.5 °F 92% 30.15 in 10.0 mi ESE 13.8 mph 23.0 mph 0.00 in   Overcast
3:10 PM 57.2 °F 53.6 °F 88% 30.15 in 10.0 mi ESE 10.4 mph 19.6 mph N/A   Overcast
3:11 PM 57.2 °F 53.6 °F 88% 30.15 in 10.0 mi ESE 10.4 mph 19.6 mph N/A   Overcast
3:12 PM 57.2 °F 53.6 °F 88% 30.15 in 10.0 mi SE 12.7 mph 19.6 mph N/A Rain Light Rain
3:13 PM 57.2 °F 53.6 °F 88% 30.15 in 10.0 mi SE 12.7 mph 19.6 mph N/A Rain Light Rain
3:56 PM 55.4 °F 53.6 °F 94% 30.14 in 10.0 mi SE 10.4 mph - N/A   Overcast
3:58 PM 55.9 °F 54.0 °F 93% 30.15 in 10.0 mi ESE 9.2 mph - 0.01 in   Overcast
4:53 PM 55.4 °F 53.6 °F 94% 30.12 in 10.0 mi East 9.2 mph - N/A   Overcast
4:58 PM 55.9 °F 54.0 °F 93% 30.13 in 10.0 mi East 9.2 mph - N/A   Overcast
5:10 PM 55.4 °F 53.6 °F 94% 30.12 in 10.0 mi East 8.1 mph - N/A   Overcast
5:23 PM 55.4 °F 53.6 °F 94% 30.11 in 10.0 mi East 8.1 mph - N/A   Overcast
5:58 PM 55.9 °F 53.8 °F 92% 30.11 in 10.0 mi East 8.1 mph - N/A   Overcast
6:05 PM 55.4 °F 53.6 °F 94% 30.10 in 10.0 mi East 8.1 mph - N/A   Overcast
6:14 PM 55.4 °F 53.6 °F 94% 30.09 in 10.0 mi East 10.4 mph - N/A   Overcast
6:58 PM 56.1 °F 53.8 °F 92% 30.08 in 10.0 mi East 9.2 mph - N/A   Overcast
7:45 PM 57.2 °F 53.6 °F 88% 30.05 in 10.0 mi East 10.4 mph - N/A Rain Light Rain
7:56 PM 57.2 °F 53.6 °F 88% 30.04 in 10.0 mi East 8.1 mph - N/A Rain Light Rain
7:58 PM 56.3 °F 54.0 °F 92% 30.05 in 10.0 mi East 9.2 mph - 0.00 in Rain Light Rain
8:07 PM 57.2 °F 53.6 °F 88% 30.04 in 10.0 mi East 10.4 mph - N/A   Overcast
8:37 PM 55.4 °F 53.6 °F 94% 30.05 in 10.0 mi ESE 8.1 mph - N/A Rain Light Rain
8:43 PM 55.4 °F 53.6 °F 94% 30.04 in 9.0 mi ESE 9.2 mph - N/A Rain Light Rain
8:53 PM 55.4 °F 53.6 °F 94% 30.03 in 5.0 mi East 10.4 mph - N/A Rain Light Rain
8:57 PM 55.4 °F 53.6 °F 94% 30.03 in 5.0 mi East 10.4 mph - N/A Rain Light Rain
8:58 PM 55.8 °F 54.3 °F 95% 30.04 in 5.0 mi East 10.4 mph - 0.00 in Rain Light Rain
9:06 PM 55.4 °F 53.6 °F 94% 30.02 in 4.0 mi ESE 9.2 mph - N/A Rain Rain
9:15 PM 55.4 °F 53.6 °F 94% 30.02 in 5.0 mi ESE 10.4 mph - N/A Rain Light Rain
9:29 PM 55.4 °F 53.6 °F 94% 30.00 in 9.0 mi East 10.4 mph - N/A Rain Light Rain
9:35 PM 55.4 °F 53.6 °F 94% 30.00 in 7.0 mi East 12.7 mph 17.3 mph N/A Rain Light Rain
9:45 PM 55.4 °F 53.6 °F 94% 30.01 in 7.0 mi East 11.5 mph - N/A Rain Light Rain
9:58 PM 55.0 °F 54.1 °F 97% 30.01 in 6.0 mi East 10.4 mph - 0.11 in Rain Light Rain
10:00 PM 55.4 °F 53.6 °F 94% 30.01 in 5.0 mi East 10.4 mph - N/A Rain Light Rain
10:11 PM 55.4 °F 53.6 °F 94% 30.01 in 6.0 mi East 8.1 mph - N/A Rain Light Rain
10:45 PM 55.4 °F 53.6 °F 94% 30.01 in 10.0 mi NW 2.3 mph - N/A Rain Light Rain
10:57 PM 55.4 °F 53.6 °F 94% 29.99 in 10.0 mi East 8.1 mph - N/A   Overcast
10:58 PM 55.4 °F 53.6 °F 94% 30.00 in 10.0 mi East 8.1 mph - 0.10 in   Overcast
11:05 PM 55.4 °F 55.4 °F 100% 29.99 in 10.0 mi SSE 3.5 mph - N/A   Overcast
11:08 PM 55.4 °F 53.6 °F 94% 29.99 in 10.0 mi South 2.3 mph - N/A Rain Light Rain
11:16 PM 55.4 °F 53.6 °F 94% 29.99 in 10.0 mi SSE 5.8 mph - N/A Rain Light Rain
11:31 PM 55.4 °F 55.4 °F 100% 29.98 in 10.0 mi SSE 9.2 mph - N/A Rain Light Rain
11:58 PM 55.9 °F 55.2 °F 97% 29.93 in 8.0 mi ESE 18.4 mph 25.3 mph 0.04 in Rain Light Rain